Aeroporto :
LOGIN :

Iscrizione | Disclaimer

   EN    FR    IT 

 










Sommario :    VFR   VFR Marginale   IFR   IFR Intensivo   IFR Molto Intensivo
Visibilità : 
Base nubi : 
>= 8 km
>= 3000ft
5 / 8 km
1000 / 3000 ft
1500m / 5 km
500 / 1000 ft
800 / 1500m
200 / 500 ft
< 800m
< 200 ft
Simboli :   Temporali  Nebbia  Neve Forte  Precipitazioni Forti  Vento > 20 kt
SIGMETs :   Varie  Temporali  Ghiacco  Turbolenza  Onda orograficha  Ceneri Vulcaniche







- Altitudine del aeroporto : 36 ft
- Codice IATA : LTQ
- Carte del aeroporto


LFAT - Le Touquet

ULTIMO METAR :
  • 181600Z AUTO 25010KT 210V280 9999 SCT016 BKN021 OVC042 19/15 Q1023 TEMPO BKN014

METARs OBSOLETI :
  • 181530Z AUTO 24010KT 210V280 9999 FEW008 SCT026 OVC041 19/15 Q1023 NOSIG
  • 181500Z AUTO 26011KT 220V300 9999 BKN014 BKN020 OVC041 19/16 Q1023 BECMG SCT015 BKN030
  • 181430Z AUTO 26011KT 220V290 9999 SCT017 OVC043 19/15 Q1023 NOSIG
  • 181400Z AUTO 25011KT 220V290 9999 FEW017 OVC041 20/15 Q1023 TEMPO BKN012
  • 181330Z AUTO 26010KT 220V300 9999 OVC043 20/15 Q1023 TEMPO BKN012

TAF AMD TAF LFAT
Valido dal 18 a 15 ore il 19 a 00 ore UTC


181522Z 1815/1824 26010KT 9999 SCT015 BKN030
TEMPO 1815/1821 BKN014
TEMPO 1821/1824 BKN008
ATIS : +33 3 21 06 62 84
Nessun NOTAM noto per questo aeroporto.



MetMap, La meteo Aeronautica in un colpo d'occhio ! - Copyright ORBIFLY Dicembre 2007 - Disclaimer

ORBIFLY MET'MAP TEAM :

Programmazione e sviluppo : Alexandra Zaïnal
Concezione e sviluppo : Baudouin d'Aumeries
Co-Programmazione e sviluppo : Marc-Olivier Méhu
Supporto tecnico e logistico : Manuel Goepfert
Aiuto per la traduzione : Arnaldo La Scala

Contatto : metmap@orbifly.com




FONTI E CREDITI :

   NOAA